Regional Weather Roundup
Issued by NWS

Home | Current Version | Previous Version | Graphics & Text | Print | Product List | Glossary On
Versions: 1 2 3 4 5 6 7 8 9 10 11 12 13 14 15 16 17 18 19 20 21 22 23 24 25 26 27 28 29 30 31 32 33 34 35 36 37 38 39 40 41 42 43 44 45 46 47 48 49 50
675
ASUS45 KCYS 241910
RWRWY

WYOMING REGIONAL WEATHER ROUNDUP
NATIONAL WEATHER SERVICE CHEYENNE WY
100 PM MDT MON APR 24 2017

NOTE:  "FAIR" INDICATES FEW OR NO CLOUDS BELOW 12,000 FEET
WITH NO SIGNIFICANT WEATHER AND/OR OBSTRUCTIONS TO VISIBILITY.

WYZ001-242000-
YELLOWSTONE NATIONAL PARK

CITY           SKY/WX    TMP DP  RH WIND       PRES   REMARKS
LK YELLOWSTONE   N/A     34  32  92 CALM      29.67F
W YELLOWSTONE  NOT AVBL

$$
WYZ002>013-054>058-071-098>099-242000-
NORTHERN WYOMING

CITY           SKY/WX    TMP DP  RH WIND       PRES   REMARKS
JACKSON        LGT RAIN  39  37  93 S13       29.66F FOG     WCI  32
CODY           FAIR      53  37  54 NE15      29.59F
GREYBULL       FAIR      60  31  33 SE7       29.55F
WORLAND        FAIR      59  36  42 VRB3      29.55F
SHERIDAN       CLOUDY    57  34  41 CALM      29.60F
BUFFALO        LGT RAIN  54  34  46 VRB5      29.62F
GILLETTE       FAIR      58  36  43 NW8       29.61F
HULETT         MOCLDY    52  37  58 N3        29.64F
NEWCASTLE      FAIR      55  32  41 NW17      29.62F

$$
WYZ014>020-022>026-101>103-242000-
CENTRAL WYOMING

CITY           SKY/WX    TMP DP  RH WIND       PRES   REMARKS
BIG PINEY      LGT RAIN  38  36  92 S12       29.69F WCI  30
PINEDALE       LGT SNOW  32  32 100 SW8       29.72S VSB 3/4 WCI  25
DUBOIS         MOCLDY    43  27  52 W17G30    29.63F
LANDER         FAIR      54  26  34 SW13G23   29.58F
RIVERTON       FAIR      56  29  35 VRB6      29.58F
CASPER         PTSUNNY   57  32  38 SW17      29.60F
DOUGLAS        PTSUNNY   62  28  27 VRB7G20   29.61F

$$
WYZ021-027>030-104>119-242000-
SOUTHERN WYOMING

CITY           SKY/WX    TMP DP  RH WIND       PRES   REMARKS
EVANSTON       LGT SNOW  36  36 100 SW9       29.70F FOG     WCI  29
KEMMERER       LGT RAIN  37  36  93 SW14G20   29.70F WCI  29
FORT BRIDGER   DRIZZLE   42  40  91 W17       29.72F
ROCK SPRINGS   PTSUNNY   47  32  56 S21       29.69F
DIXON          LGT RAIN  49  37  63 CALM      29.74F
RAWLINS        CLOUDY    53  27  36 SW21      29.68F
SARATOGA       FAIR      54  27  35 SW13G24   29.71F
LARAMIE        FAIR      53  22  29 W20G29    29.69F
CHEYENNE       FAIR      58  23  26 NW17G28   29.66F
TORRINGTON     FAIR      63  31  30 N8        29.61F
PINE BLUFFS    FAIR      63  25  23 NW14G21   29.65F

$$




USA.gov is the U.S. government's official web portal to all federal, state and local government web resources and services.